(149133) = 2002 ET61

Discovered at Socorro on 2002-03-13 by LINEAR.

Orbit

Orbit type: Main Belt

Note: WebGL enabled browser required.

epoch2023-09-13.0
epoch JD2460200.5
perihelion date2023-01-16.31082
perihelion JD2459960.81082
argument of perihelion (°)303.65181
ascending node (°)248.77975
inclination (°)1.14059
eccentricity0.1514456
perihelion distance (AU)2.5291571
Tisserand w.r.t. Jupiter3.2
ΔV w.r.t. Earth (km/sec)10.0
semimajor axis (AU)2.9805482
mean anomaly (°)45.91008
mean daily motion (°/day)0.19154010
aphelion distance (AU)3.432
period (years)5.15
P-vector [x]-0.97640011
P-vector [y]-0.19097295
P-vector [z]-0.10085715
Q-vector [x]0.21517087
Q-vector [y]-0.90032193
Q-vector [z]-0.37831458
absolute magnitude16.26
phase slope0.15
uncertainty0
referenceMPO 777894
observations used422
oppositions17
arc length (days)9549
first opposition used1997
last opposition used2023
residual rms (arc-secs)0.73
perturbers coarse indicatorM-v
perturbers precise indicator003Ek
first observation date used1997-04-27.0
last observation date used2023-06-19.0
computer nameMPCLINUX
JD of orbit computation2456909.205464
perihelion JD uncertainty (days)9.1543E-05
argument of perihelion uncertainty (°)3.0544E-04
ascending node uncertainty (°)3.0495E-04
inclination uncertainty (°)4.3391E-06
eccentricity uncertainty 5.7861E-08
perihelion distance uncertainty (AU)1.7725E-07
Minimum Orbit Intersection Distances (in AU)
for orbit epoch: 2460200.5, reference: E2023-T91
Mercury2.10845
Venus1.8106
Earth1.5279
Mars0.88941
Jupiter1.5277
Saturn5.84319
Uranus15.8415
Neptune26.4194

Observations

425 total observations over interval: 1997 04 27.14352 – 2023 06 19.312722
These data are available for download (format description).

Date (UT) J2000 RA J2000 Dec Magn Location Ref
1997 04 27.14352 12 20 26.12 -03 43 59.5 19.9 V 691 – Steward Observatory, Kitt Peak-Spacewatch MPS 155261
1997 04 27.16436 12 20 25.54 -03 43 55.2 19.9 V 691 – Steward Observatory, Kitt Peak-Spacewatch MPS 155261
1997 04 27.18547 12 20 24.94 -03 43 50.8 20.2 V 691 – Steward Observatory, Kitt Peak-Spacewatch MPS 155261
2002 02 11.38339 11 36 36.68 +00 38 51.7 19.8   704 – Lincoln Laboratory ETS, New Mexico MPS 54876
2002 02 11.39797 11 36 36.30 +00 38 52.0 20.5   704 – Lincoln Laboratory ETS, New Mexico MPS 54876
2002 02 11.41230 11 36 35.85 +00 38 54.2 20.4   704 – Lincoln Laboratory ETS, New Mexico MPS 54876
2002 02 11.44103 11 36 35.08 +00 39 00.0 20.7   704 – Lincoln Laboratory ETS, New Mexico MPS 54876
2002 02 13.45710 11 35 39.09 +00 44 05.4 21.5 V 691 – Steward Observatory, Kitt Peak-Spacewatch MPS 54876
2002 02 13.47883 11 35 38.47 +00 44 09.2 21.0 V 691 – Steward Observatory, Kitt Peak-Spacewatch MPS 54876
2002 02 13.50003 11 35 37.77 +00 44 12.9 20.6 V 691 – Steward Observatory, Kitt Peak-Spacewatch MPS 54876
2002 02 15.32861 11 34 42.79 +00 49 22.3 20.1   704 – Lincoln Laboratory ETS, New Mexico MPS 54876
2002 02 15.35767 11 34 41.89 +00 49 30.1 19.8   704 – Lincoln Laboratory ETS, New Mexico MPS 54876
2002 02 15.37210 11 34 41.37 +00 49 32.4 20.2   704 – Lincoln Laboratory ETS, New Mexico MPS 54876
2002 02 15.38683 11 34 40.89 +00 49 34.8 19.8   704 – Lincoln Laboratory ETS, New Mexico MPS 54876
2002 03 05.21904 11 22 46.07 +02 01 54.5 19.8 V 333 – Desert Eagle Observatory MPS 54876
2002 03 05.24525 11 22 44.90 +02 02 01.4 20.4 V 333 – Desert Eagle Observatory MPS 54876
2002 03 05.27118 11 22 43.57 +02 02 09.8 20.3 V 333 – Desert Eagle Observatory MPS 54876
2002 03 13.26523 11 16 28.27 +02 42 19.3 19.0   704 – Lincoln Laboratory ETS, New Mexico MPS 55783
2002 03 13.27903 11 16 27.62 +02 42 24.5 19.6   704 – Lincoln Laboratory ETS, New Mexico MPS 55783
2002 03 13.29289 11 16 27.01 +02 42 29.8 19.6   704 – Lincoln Laboratory ETS, New Mexico MPS 55783
2002 03 13.30676 11 16 26.34 +02 42 33.0 19.9   704 – Lincoln Laboratory ETS, New Mexico MPS 55783
2002 03 13.32075 11 16 25.70 +02 42 37.9 19.9   704 – Lincoln Laboratory ETS, New Mexico MPS 55783
2002 03 15.24735 11 14 55.58 +02 52 25.7 19.3   704 – Lincoln Laboratory ETS, New Mexico MPS 55783
2002 03 15.26075 11 14 54.90 +02 52 29.7 19.4   704 – Lincoln Laboratory ETS, New Mexico MPS 55783
2002 03 15.27419 11 14 54.24 +02 52 33.0 19.2   704 – Lincoln Laboratory ETS, New Mexico MPS 55783
2002 03 15.28766 11 14 53.57 +02 52 37.6 19.1   704 – Lincoln Laboratory ETS, New Mexico MPS 55783
2002 03 15.30590 11 14 52.67 +02 52 43.5 19.7   704 – Lincoln Laboratory ETS, New Mexico MPS 55783
2002 03 18.42154 11 12 29.35 +03 08 32.4 21.2   608 – Haleakala-AMOS MPS 54876
2002 03 18.43249 11 12 28.87 +03 08 34.6 20.8   608 – Haleakala-AMOS MPS 54876
2002 03 18.44315 11 12 28.38 +03 08 37.8 20.5   608 – Haleakala-AMOS MPS 54876
2002 04 04.14839 11 01 42.25 +04 23 00.0 20.2   644 – Palomar Mountain/NEAT MPS 54876
2002 04 04.16973 11 01 41.60 +04 23 04.7 19.9   644 – Palomar Mountain/NEAT MPS 54876
2002 04 04.19105 11 01 40.91 +04 23 09.5 19.8   644 – Palomar Mountain/NEAT MPS 54876
2002 04 12.16473 10 58 24.58 +04 48 07.8 19.7   704 – Lincoln Laboratory ETS, New Mexico MPS 54876
2002 04 12.17864 10 58 24.40 +04 48 10.5 19.2   704 – Lincoln Laboratory ETS, New Mexico MPS 54876
2002 04 12.19256 10 58 24.11 +04 48 12.8 19.9   704 – Lincoln Laboratory ETS, New Mexico MPS 54876
2002 04 12.20647 10 58 23.81 +04 48 15.3 19.8   704 – Lincoln Laboratory ETS, New Mexico MPS 54876
2002 04 12.22039 10 58 23.44 +04 48 16.8 20.2   704 – Lincoln Laboratory ETS, New Mexico MPS 54876
2004 09 16.34166 23 48 43.34 +00 27 44.9 20.7 V 691 – Steward Observatory, Kitt Peak-Spacewatch MPS 149430
2004 09 16.37215 23 48 41.96 +00 27 36.0 20.7 V 691 – Steward Observatory, Kitt Peak-Spacewatch MPS 149430
2004 09 16.40699 23 48 40.37 +00 27 26.0 20.6 V 691 – Steward Observatory, Kitt Peak-Spacewatch MPS 149430
2004 09 24.309917 23 42 49.818 -00 11 21.04 21.04 V 645 – Apache Point-Sloan Digital Sky Survey MPS 390022
2004 09 24.313389 23 42 49.660 -00 11 22.04 21.60   645 – Apache Point-Sloan Digital Sky Survey MPS 390022
2005 10 27.43082 04 14 53.95 +21 36 12.1 20.7 V 691 – Steward Observatory, Kitt Peak-Spacewatch MPS 149430
2005 10 27.44842 04 14 53.33 +21 36 10.3 21.2 V 691 – Steward Observatory, Kitt Peak-Spacewatch MPS 149430
2005 10 27.46595 04 14 52.67 +21 36 08.8 21.3 V 691 – Steward Observatory, Kitt Peak-Spacewatch MPS 149430
2005 11 12.31073 04 03 23.59 +21 02 30.7 21.4 V 691 – Steward Observatory, Kitt Peak-Spacewatch MPS 149430
2005 11 12.32803 04 03 22.75 +21 02 28.0 21.3 V 691 – Steward Observatory, Kitt Peak-Spacewatch MPS 149430
2005 11 12.34545 04 03 21.84 +21 02 25.3 21.1 V 691 – Steward Observatory, Kitt Peak-Spacewatch MPS 149430
2005 11 21.13835 03 55 48.06 +20 38 32.2 20.8 V 691 – Steward Observatory, Kitt Peak-Spacewatch MPS 150676
2005 11 21.15571 03 55 47.14 +20 38 29.0 20.4 V 691 – Steward Observatory, Kitt Peak-Spacewatch MPS 150676
2005 11 21.17307 03 55 46.18 +20 38 26.4 20.6 V 691 – Steward Observatory, Kitt Peak-Spacewatch MPS 150676
2005 11 25.34787 03 52 05.08 +20 26 17.1 20.3 V G96 – Mt. Lemmon Survey MPS 151997
2005 11 25.35515 03 52 04.69 +20 26 16.1 20.3 V G96 – Mt. Lemmon Survey MPS 151997
2005 11 25.36244 03 52 04.29 +20 26 14.8 20.3 V G96 – Mt. Lemmon Survey MPS 151997
2005 11 25.36973 03 52 03.90 +20 26 13.3 20.2 V G96 – Mt. Lemmon Survey MPS 151997
2005 12 02.26060 03 46 05.66 +20 05 43.0 20.4 V G96 – Mt. Lemmon Survey MPS 153623
2005 12 02.26829 03 46 05.23 +20 05 41.6 20.5 V G96 – Mt. Lemmon Survey MPS 153623
2005 12 02.27606 03 46 04.83 +20 05 40.5 20.4 V G96 – Mt. Lemmon Survey MPS 153623
2005 12 02.28387 03 46 04.44 +20 05 38.6 20.1 V G96 – Mt. Lemmon Survey MPS 153623
2005 12 04.27140 03 44 24.68 +19 59 45.2 20.5 V G96 – Mt. Lemmon Survey MPS 153623
2005 12 04.27808 03 44 24.32 +19 59 43.6 20.5 V G96 – Mt. Lemmon Survey MPS 153623
2005 12 04.28472 03 44 23.96 +19 59 42.7 20.7 V G96 – Mt. Lemmon Survey MPS 153623
2005 12 04.29135 03 44 23.64 +19 59 41.6 20.3 V G96 – Mt. Lemmon Survey MPS 153623
2006 12 21.47314 10 26 25.58 +08 21 33.5 20.4 V G96 – Mt. Lemmon Survey MPS 191960
2006 12 21.48061 10 26 25.65 +08 21 32.7 21.2 V G96 – Mt. Lemmon Survey MPS 191960
2006 12 21.48792 10 26 25.80 +08 21 31.6 21.2 V G96 – Mt. Lemmon Survey MPS 191960
2006 12 21.49523 10 26 25.94 +08 21 30.4 21.1 V G96 – Mt. Lemmon Survey MPS 191960
2007 01 27.48171 10 22 04.18 +08 23 32.7 19.7 V G96 – Mt. Lemmon Survey MPS 198039
2007 01 27.48951 10 22 03.93 +08 23 33.8 19.9 V G96 – Mt. Lemmon Survey MPS 198039
2007 01 27.49730 10 22 03.64 +08 23 35.2 19.9 V G96 – Mt. Lemmon Survey MPS 198039
2007 01 27.50509 10 22 03.39 +08 23 36.8 20.0 V G96 – Mt. Lemmon Survey MPS 198039
2007 01 28.46746 10 21 30.63 +08 26 16.2 20.1 V 691 – Steward Observatory, Kitt Peak-Spacewatch MPS 198039
2007 01 28.48549 10 21 29.98 +08 26 19.2 20.4 V 691 – Steward Observatory, Kitt Peak-Spacewatch MPS 198039
2007 01 28.50327 10 21 29.35 +08 26 22.2 20.3 V 691 – Steward Observatory, Kitt Peak-Spacewatch MPS 198039
2007 02 07.44232 10 14 51.50 +08 59 52.6 19.6 V G96 – Mt. Lemmon Survey MPS 199375
2007 02 07.44848 10 14 51.21 +08 59 54.0 20.0 V G96 – Mt. Lemmon Survey MPS 199375
2007 02 07.45472 10 14 50.92 +08 59 55.1 19.8 V G96 – Mt. Lemmon Survey MPS 199375
2007 02 07.46093 10 14 50.64 +08 59 56.7 19.6 V G96 – Mt. Lemmon Survey MPS 199375
2007 02 13.32071 10 10 17.53 +09 23 48.8 19.6   704 – Lincoln Laboratory ETS, New Mexico MPS 200222
2007 02 13.33191 10 10 17.02 +09 23 50.8 19.8   704 – Lincoln Laboratory ETS, New Mexico MPS 200222
2007 02 13.35412 10 10 15.87 +09 23 56.6 20.0   704 – Lincoln Laboratory ETS, New Mexico MPS 200222
2007 02 15.43702 10 08 34.18 +09 32 55.2 19.8 R 644 – Palomar Mountain/NEAT MPS 200222
2007 02 15.45742 10 08 33.14 +09 33 00.4 19.3 R 644 – Palomar Mountain/NEAT MPS 200222
2007 02 15.47897 10 08 32.05 +09 33 06.4 19.4 R 644 – Palomar Mountain/NEAT MPS 200222
2007 02 22.16764 10 03 00.52 +10 02 46.0   691 – Steward Observatory, Kitt Peak-Spacewatch MPS 201386
